[[{"header":{"parameterUnit":"m.s-1","parameterCategory":1,"la1":30.2991,"la2":30.254,"lo1":-89.0895,"lo2":-89.0444,"dy":0.0017,"dx":0.0017,"nx":28,"ny":28,"refTime":"2024-03-09T09:00:00:Z","depth":0,"parameterNumber":2,"parameterNumberName":"U-component_of_WINDS"},"data":[0,0,0,0,0,0,0,0,0,0,0,0,0,0,0,0,0,0,0,0,0,0,0,0,0,0,0,0,0,0,0,0,0,0,0,0,0,0,0,0,0,0,0,0,0,0,0,0,0,0,0,0,0,0,0,0,0,0,2.4448,2.4449,0,2.4477,2.4478,2.4478,2.4478,2.4477,2.4477,2.4476,2.4506,2.4507,2.4508,0,0,0,0,0,0,0,0,0,0,0,0,0,2.4394,2.4395,2.4448,2.4449,2.4449,2.4477,2.4478,2.4478,2.4478,2.4477,2.4477,2.4476,2.4505,2.4507,2.4508,0,0,0,0,0,0,0,0,0,0,0,0,0,2.442,2.4396,2.4448,2.4452,2.4453,2.4477,2.4478,2.4478,2.4478,2.4477,2.4477,2.4476,2.4505,2.4507,2.4508,2.4531,0,0,2.4514,2.4514,0,0,0,0,0,0,0,0,2.4419,2.4422,2.4451,2.4452,2.4453,2.4473,2.447,2.4496,2.4478,2.4468,2.4476,2.4476,2.4495,2.4498,2.4505,2.4532,2.4533,2.4514,2.4515,2.4516,2.4516,0,0,0,0,0,0,0,2.4417,2.4421,2.446,2.4452,2.4453,2.4453,2.4456,2.4475,2.4485,2.4469,2.4469,2.4473,2.4496,2.4503,2.4505,2.4534,2.4514,2.4515,2.4516,2.4517,2.4585,2.4585,0,0,0,0,0,0,2.4414,2.4419,2.4459,2.4461,2.4434,2.4455,2.4458,2.4467,2.4485,2.4487,2.4473,2.4472,2.45,2.4503,2.4506,2.4536,2.4516,2.4517,2.4518,2.4584,2.4585,2.4586,0,0,0,0,0,0,2.4413,2.4418,2.4458,2.444,2.4445,2.4456,2.4467,2.4468,2.4475,2.4488,2.4489,2.4478,2.45,2.4504,2.4526,2.4537,2.4518,2.452,2.4583,2.4584,2.4585,2.4593,0,0,0,0,0,0,2.4411,2.4417,2.4425,2.444,2.4446,2.4476,2.4467,2.4469,2.4478,2.4478,2.4493,2.4495,2.45,2.4523,2.4527,2.4539,2.4521,2.4582,2.4584,2.4585,2.4592,2.4595,2.4597,0,0,0,0,0,2.4409,2.4425,2.4425,2.443,2.4456,2.4476,2.448,2.4485,2.4479,2.4488,2.4496,2.4495,2.4535,2.4525,2.453,2.4542,2.4581,2.4583,2.4585,2.4591,2.4594,2.4597,0,0,0,0,0,0,2.441,2.4427,2.4427,2.4449,2.4461,2.4476,2.4487,2.4487,2.4501,2.45,2.4506,2.451,2.4532,2.4539,2.4528,2.4566,2.4558,2.456,2.4561,2.4564,2.4566,2.4564,2.4522,0,0,0,0,0,2.4413,2.4427,2.4442,2.4459,2.4466,2.4475,2.4484,2.4487,2.45,2.4506,2.4515,2.4528,2.4544,2.4554,2.4569,2.4594,2.4598,2.4605,2.4607,2.4609,2.4611,2.4627,2.4631,2.4591,2.4591,2.4591,0,0,2.4418,2.443,2.4438,2.446,2.447,2.4486,2.4479,2.4496,2.4508,2.4508,2.4529,2.4538,2.4553,2.4576,2.4587,2.4583,2.4623,2.4611,2.4612,2.4614,2.4629,2.4633,2.4636,2.4593,2.4592,2.4592,0,0,2.4437,2.4446,2.4463,2.4474,2.4489,2.4496,2.4501,2.4516,2.4522,2.4544,2.4545,2.456,2.4586,2.4598,2.4607,2.4634,2.4634,2.4639,2.4651,2.4666,2.467,2.4672,2.4684,2.4687,2.4641,2.4641,2.4641,0,2.4441,2.4465,2.4471,2.4488,2.4499,2.4501,2.4519,2.4529,2.4549,2.4557,2.4552,2.4588,2.4597,2.4625,2.4632,2.4639,2.4645,2.4637,2.4669,2.4671,2.4674,2.4685,2.4689,2.4642,2.4642,2.4642,2.4642,0,2.4471,2.4488,2.4499,2.452,2.4532,2.4549,2.4559,2.4571,2.4574,2.4582,2.4606,2.4618,2.4637,2.4644,2.4647,2.4673,2.4671,2.4667,2.4658,2.4678,2.4689,2.4693,2.4643,2.4642,2.4642,2.4642,0,0,2.4488,2.4514,2.4518,2.4529,2.4548,2.4562,2.4581,2.46,2.461,2.4625,2.4642,2.4666,2.4664,2.4675,2.4679,2.4693,2.4716,2.4688,2.4689,2.4694,2.4749,2.4751,2.4756,2.4716,2.4717,2.4718,2.4748,0,2.4509,2.4542,2.455,2.4579,2.4596,2.46,2.4617,2.4631,2.464,2.4656,2.4666,2.4684,2.4679,2.4686,2.4699,2.471,2.4727,2.4708,2.4733,2.4734,2.473,2.4761,2.4763,2.4791,2.4752,2.4752,2.4753,0,2.4537,2.4554,2.4585,2.4605,2.4612,2.4627,2.4647,2.4662,2.468,2.4686,2.4699,2.4703,2.4725,2.4716,2.4746,2.4733,2.4744,2.4752,2.4753,2.4755,2.4745,2.4765,2.4799,2.4804,2.4759,2.4758,2.4758,0,2.4549,2.4579,2.4602,2.4611,2.4634,2.4645,2.4655,2.4672,2.4684,2.4702,2.4711,2.4731,2.4742,2.4758,2.4768,2.476,2.4798,2.4789,2.4805,2.4805,2.4812,2.4812,2.4849,2.4818,2.4818,2.4818,2.4818,0,2.4571,2.459,2.4608,2.4622,2.4644,2.4654,2.4676,2.4687,2.4703,2.472,2.4725,2.4741,2.4753,2.4771,2.4779,2.4805,2.4809,2.4816,2.4818,2.4815,2.4815,2.4823,2.4821,2.4819,2.4819,2.4819,2.4819,0,2.4587,2.4599,2.4625,2.4646,2.4652,2.4668,2.4686,2.4701,2.4712,2.4734,2.4739,2.4755,2.4778,2.479,2.4817,2.4823,2.4852,2.4852,2.4846,2.4847,2.4862,2.4861,2.4907,2.4914,2.4878,2.4878,2.4878,0,2.4601,2.4616,2.464,2.4652,2.4663,2.4682,2.4696,2.4707,2.4721,2.4744,2.4756,2.4779,2.4798,2.4834,2.4849,2.4871,2.4872,2.4887,2.4875,2.4874,2.4874,2.4873,2.4876,2.4889,2.4889,2.4889,2.489,0,2.4625,2.4631,2.4649,2.4672,2.4688,2.4705,2.4723,2.4733,2.4747,2.4763,2.4786,2.4801,2.4831,2.4854,2.4878,2.489,2.4893,2.4893,2.4898,2.4896,2.4893,2.4897,2.4852,2.4892,2.4892,2.4892,2.4891,2.4891,2.464,2.4655,2.4675,2.4697,2.4712,2.4729,2.4745,2.4758,2.4778,2.4803,2.4809,2.4834,2.4855,2.4887,2.49,2.4921,2.4918,2.4925,2.4926,2.4928,2.493,2.489,2.4925,2.4925,2.4925,2.4925,2.4925,0,2.4666,2.4679,2.4699,2.4725,2.4743,2.4745,2.4765,2.478,2.4803,2.4821,2.4841,2.4869,2.4893,2.4911,2.4935,2.4949,2.4951,2.4955,2.4954,2.4958,2.493,2.4924,2.4953,2.4953,2.4953,2.4953,2.4953,2.4953,2.4681,2.4707,2.4716,2.475,2.4764,2.4789,2.4801,2.4818,2.4833,2.4865,2.4885,2.4897,2.4916,2.4942,2.4965,2.497,2.4979,2.4983,2.4988,2.4962,2.4959,2.4956,2.4951,2.4985,2.4985,2.5014,2.5014,2.5015]},{"header":{"parameterUnit":"m.s-1","parameterCategory":1,"la1":30.2991,"la2":30.254,"lo1":-89.0895,"lo2":-89.0444,"dy":0.0017,"dx":0.0017,"nx":28,"ny":28,"refTime":"2024-03-09T09:00:00:Z","depth":0,"parameterNumber":3,"parameterNumberName":"V-component_of_WINDS"},"data":[0,0,0,0,0,0,0,0,0,0,0,0,0,0,0,0,0,0,0,0,0,0,0,0,0,0,0,0,0,0,0,0,0,0,0,0,0,0,0,0,0,0,0,0,0,0,0,0,0,0,0,0,0,0,0,0,0,0,-5.0644,-5.0644,0,-5.0623,-5.0623,-5.0623,-5.0629,-5.0629,-5.063,-5.063,-5.0604,-5.0603,-5.0602,0,0,0,0,0,0,0,0,0,0,0,0,0,-5.0687,-5.0686,-5.0644,-5.0644,-5.0644,-5.0623,-5.0623,-5.0623,-5.0629,-5.0629,-5.063,-5.063,-5.0604,-5.0603,-5.0602,0,0,0,0,0,0,0,0,0,0,0,0,0,-5.0667,-5.0686,-5.0644,-5.0644,-5.0644,-5.0624,-5.0623,-5.0623,-5.0629,-5.0629,-5.063,-5.063,-5.0605,-5.0603,-5.0601,-5.0578,0,0,-5.0596,-5.0596,0,0,0,0,0,0,0,0,-5.0668,-5.0666,-5.0645,-5.0644,-5.0644,-5.063,-5.0629,-5.0608,-5.0628,-5.0634,-5.063,-5.0631,-5.0612,-5.0609,-5.0604,-5.0577,-5.0576,-5.0596,-5.0595,-5.0594,-5.0594,0,0,0,0,0,0,0,-5.067,-5.0667,-5.0636,-5.0644,-5.0644,-5.0645,-5.0643,-5.0625,-5.0619,-5.0634,-5.0634,-5.0632,-5.0611,-5.0605,-5.0603,-5.0575,-5.0596,-5.0595,-5.0594,-5.0593,-5.0529,-5.0528,0,0,0,0,0,0,-5.0672,-5.0668,-5.0637,-5.0635,-5.0658,-5.0643,-5.0641,-5.0633,-5.062,-5.0618,-5.0631,-5.0632,-5.0608,-5.0605,-5.0602,-5.0574,-5.0594,-5.0593,-5.0592,-5.053,-5.0529,-5.0528,0,0,0,0,0,0,-5.0673,-5.0669,-5.0637,-5.0652,-5.0648,-5.0642,-5.0633,-5.0633,-5.0627,-5.0618,-5.0617,-5.0626,-5.0608,-5.0605,-5.0585,-5.0573,-5.0592,-5.0591,-5.0531,-5.053,-5.0529,-5.0518,0,0,0,0,0,0,-5.0674,-5.0669,-5.0661,-5.0652,-5.0647,-5.0621,-5.0633,-5.0632,-5.0624,-5.0625,-5.0613,-5.0611,-5.0609,-5.0587,-5.0583,-5.0572,-5.0589,-5.0532,-5.053,-5.0529,-5.0519,-5.0517,-5.0514,0,0,0,0,0,-5.0675,-5.0657,-5.066,-5.0656,-5.0636,-5.062,-5.0617,-5.0616,-5.0623,-5.0614,-5.0609,-5.0612,-5.0576,-5.0585,-5.058,-5.0568,-5.0532,-5.0531,-5.0529,-5.052,-5.0517,-5.0515,0,0,0,0,0,0,-5.0663,-5.0656,-5.0659,-5.0638,-5.063,-5.0621,-5.061,-5.0613,-5.0601,-5.0602,-5.06,-5.0597,-5.0577,-5.0571,-5.0581,-5.0546,-5.0555,-5.0552,-5.055,-5.0547,-5.0545,-5.0546,-5.0588,0,0,0,0,0,-5.0658,-5.0647,-5.0641,-5.0622,-5.0619,-5.0615,-5.0608,-5.0608,-5.0599,-5.0595,-5.0588,-5.0578,-5.0565,-5.0556,-5.0543,-5.0519,-5.0516,-5.0509,-5.0506,-5.0505,-5.0502,-5.0489,-5.0486,-5.0523,-5.0523,-5.0523,0,0,-5.0647,-5.0642,-5.0634,-5.062,-5.0614,-5.0601,-5.0612,-5.0598,-5.0588,-5.0592,-5.0573,-5.0568,-5.0557,-5.0535,-5.0525,-5.053,-5.0492,-5.0503,-5.0501,-5.0499,-5.0487,-5.0484,-5.0481,-5.0522,-5.0522,-5.0522,0,0,-5.0621,-5.0616,-5.06,-5.0595,-5.0586,-5.0585,-5.0581,-5.0573,-5.057,-5.0552,-5.0555,-5.0543,-5.052,-5.0512,-5.0505,-5.0479,-5.0481,-5.0475,-5.0462,-5.045,-5.0447,-5.0444,-5.0435,-5.0431,-5.0473,-5.0473,-5.0473,0,-5.0607,-5.059,-5.0592,-5.0578,-5.0571,-5.0578,-5.0562,-5.0556,-5.0542,-5.0538,-5.0543,-5.0516,-5.0509,-5.0486,-5.048,-5.0474,-5.0469,-5.0475,-5.0448,-5.0445,-5.0442,-5.0433,-5.043,-5.0472,-5.0472,-5.0472,-5.0472,0,-5.0574,-5.0562,-5.055,-5.054,-5.0532,-5.0517,-5.0517,-5.0509,-5.051,-5.0508,-5.0489,-5.0482,-5.0468,-5.0463,-5.0463,-5.044,-5.0443,-5.0448,-5.0457,-5.0438,-5.0429,-5.0426,-5.0471,-5.0471,-5.0471,-5.0472,0,0,-5.0536,-5.0529,-5.0525,-5.0521,-5.0513,-5.0503,-5.0489,-5.0478,-5.0471,-5.0463,-5.045,-5.0432,-5.0438,-5.043,-5.043,-5.042,-5.0399,-5.0426,-5.0426,-5.0421,-5.0374,-5.0369,-5.0365,-5.0402,-5.0401,-5.0401,-5.0374,0,-5.0508,-5.0484,-5.0487,-5.0464,-5.0453,-5.046,-5.0448,-5.0441,-5.044,-5.0429,-5.0427,-5.0414,-5.0422,-5.0418,-5.0408,-5.0404,-5.039,-5.0406,-5.0389,-5.0388,-5.039,-5.036,-5.0354,-5.033,-5.0371,-5.037,-5.037,0,-5.0472,-5.0464,-5.0441,-5.0437,-5.0432,-5.0421,-5.0412,-5.0402,-5.0395,-5.0395,-5.0388,-5.039,-5.0376,-5.0387,-5.0367,-5.0378,-5.0371,-5.0369,-5.0368,-5.0364,-5.0377,-5.0355,-5.0322,-5.0318,-5.0365,-5.0365,-5.0365,0,-5.0446,-5.043,-5.0414,-5.0411,-5.0405,-5.0398,-5.0395,-5.0389,-5.0383,-5.0374,-5.037,-5.036,-5.0353,-5.0345,-5.0345,-5.0353,-5.0324,-5.0335,-5.0322,-5.0322,-5.0314,-5.0314,-5.0278,-5.0312,-5.0312,-5.0312,-5.0313,0,-5.0413,-5.0398,-5.0403,-5.0392,-5.0376,-5.038,-5.0364,-5.0362,-5.0357,-5.0347,-5.0352,-5.0342,-5.0343,-5.0332,-5.0332,-5.0315,-5.0313,-5.0311,-5.0311,-5.031,-5.031,-5.0304,-5.0305,-5.0312,-5.0312,-5.0312,-5.0312,0,-5.038,-5.0383,-5.0366,-5.0364,-5.0363,-5.0351,-5.0348,-5.0339,-5.0339,-5.0325,-5.0322,-5.0322,-5.031,-5.031,-5.0295,-5.0295,-5.0275,-5.0277,-5.0277,-5.0277,-5.0264,-5.0265,-5.0222,-5.0216,-5.0255,-5.0255,-5.0255,0,-5.0358,-5.0348,-5.0345,-5.0339,-5.0337,-5.0327,-5.0321,-5.0325,-5.0319,-5.0312,-5.0303,-5.0293,-5.0284,-5.0265,-5.0263,-5.0252,-5.0254,-5.024,-5.0252,-5.0252,-5.0252,-5.0253,-5.0251,-5.0236,-5.0236,-5.0235,-5.0235,0,-5.032,-5.0322,-5.0314,-5.0308,-5.0301,-5.0295,-5.029,-5.0285,-5.0288,-5.0281,-5.027,-5.0264,-5.0251,-5.024,-5.0231,-5.0227,-5.0231,-5.0232,-5.0228,-5.0226,-5.0226,-5.0225,-5.0269,-5.0232,-5.0232,-5.0233,-5.0233,-5.0233,-5.0291,-5.0282,-5.0279,-5.0271,-5.0268,-5.0264,-5.0255,-5.0255,-5.0247,-5.0238,-5.0241,-5.0229,-5.0224,-5.0212,-5.0208,-5.0198,-5.0203,-5.0198,-5.0196,-5.0194,-5.0193,-5.023,-5.0197,-5.0197,-5.0197,-5.0197,-5.0197,0,-5.0252,-5.0251,-5.0244,-5.0237,-5.0231,-5.0239,-5.0234,-5.0227,-5.0217,-5.0213,-5.0206,-5.0194,-5.0184,-5.0183,-5.0173,-5.0166,-5.0167,-5.0163,-5.0163,-5.0162,-5.0189,-5.0193,-5.0162,-5.0162,-5.0162,-5.0162,-5.0162,-5.0162,-5.023,-5.0216,-5.0218,-5.0203,-5.0202,-5.0192,-5.0188,-5.0184,-5.0182,-5.0169,-5.0161,-5.0161,-5.0158,-5.0149,-5.0141,-5.0141,-5.0136,-5.0131,-5.0131,-5.0156,-5.016,-5.0163,-5.0166,-5.013,-5.013,-5.0104,-5.0104,-5.0104]}]]